1 Minute Report
Date Time Wind Direction Wind Speed Wind Gust Wind Variable Altimeter Temperature Dewpoint Relative Humidity Visibility Ceiling Precip Present Weather Density Alt Wind Chill Heat Index
17/09/2013:0000000N/AN/A30.0668(F), 20(C)65(F), 18(C)88%1/4OVC002N/AFog N/A68 FN/A90
17/09/2012:5500000N/AN/A30.0567(F), 19(C)64(F), 18(C)94%1/4OVC002N/AFog N/A67 FN/A85
17/09/2012:5000000N/AN/A30.0567(F), 19(C)63(F), 17(C)88%1/4OVC002N/AFog N/A67 FN/A80
17/09/2012:4500000N/AN/A30.0567(F), 19(C)63(F), 17(C)88%1/4OVC002N/AFog N/A67 FN/A75
17/09/2012:4000000N/AN/A30.0567(F), 19(C)63(F), 17(C)88%M1/4OVC002N/AFog N/A67 FN/A70
17/09/2012:3500000N/AN/A30.0567(F), 19(C)63(F), 17(C)88%M1/4OVC002N/AFog N/A67 FN/A65
17/09/2012:3000000N/AN/A30.0567(F), 19(C)63(F), 17(C)88%M1/4OVC002N/AFog N/A67 FN/A60
17/09/2012:2500000N/AN/A30.0565(F), 18(C)61(F), 16(C)88%M1/4OVC002N/AFog N/A65 FN/A55
17/09/2012:2000000N/AN/A30.0564(F), 18(C)61(F), 16(C)88%M1/4OVC002N/AFog N/A64 FN/A50
17/09/2012:1500000N/AN/A30.0564(F), 18(C)61(F), 16(C)88%M1/4OVC002N/AFog N/A64 FN/A45
17/09/2012:1000000N/AN/A30.0564(F), 18(C)61(F), 16(C)88%M1/4OVC002N/AFog N/A64 FN/A40
17/09/2012:0500000N/AN/A30.0564(F), 18(C)61(F), 16(C)88%M1/4OVC002N/AFog N/A64 FN/A35
17/09/2012:0000000N/AN/A30.0564(F), 18(C)61(F), 16(C)88%M1/4OVC002N/AFog N/A64 FN/A30
17/09/2011:5500000N/AN/A30.0564(F), 18(C)61(F), 16(C)88%M1/4OVC002N/AFog N/A64 FN/A25
17/09/2011:5000000N/AN/A30.0464(F), 18(C)61(F), 16(C)88%M1/4OVC002N/AFog N/A64 FN/A20
17/09/2011:4500000N/AN/A30.0464(F), 18(C)61(F), 16(C)88%M1/4OVC002N/AFog N/A64 FN/A15
17/09/2011:4000000N/AN/A30.0464(F), 18(C)61(F), 16(C)88%M1/4OVC002N/AFog N/A64 FN/A10
17/09/2011:3500000N/AN/A30.0464(F), 18(C)61(F), 16(C)88%M1/4OVC002N/AFog N/A64 FN/A5
17/09/2011:3000000N/AN/A30.0364(F), 18(C)61(F), 16(C)88%M1/4OVC002N/AFog N/A64 FN/A0
17/09/2011:2500000N/AN/A30.0364(F), 18(C)61(F), 16(C)88%M1/4OVC002N/AFog N/A64 FN/A8995
17/09/2011:2000000N/AN/A30.0364(F), 18(C)61(F), 16(C)88%M1/4OVC002N/AFog N/A64 FN/A8990
17/09/2011:1500000N/AN/A30.0363(F), 17(C)60(F), 16(C)94%M1/4OVC002N/AFog N/A63 FN/A8985
17/09/2011:1000000N/AN/A30.0363(F), 17(C)60(F), 16(C)94%M1/4OVC002N/AFog N/A63 FN/A8980
17/09/2011:0500000N/AN/A30.0263(F), 17(C)59(F), 15(C)88%M1/4OVC002N/AFog N/A63 FN/A8975
17/09/2011:0000000N/AN/A30.0263(F), 17(C)59(F), 15(C)88%M1/4OVC002N/AFog N/A63 FN/A8970
17/09/2010:5500000N/AN/A30.0263(F), 17(C)59(F), 15(C)88%M1/4OVC002N/AFog N/A63 FN/A8965
17/09/2010:5000000N/AN/A30.0263(F), 17(C)59(F), 15(C)88%1/4OVC002N/AFog N/A63 FN/A8960
17/09/2010:4500000N/AN/A30.0262(F), 17(C)59(F), 15(C)88%1/4OVC002N/AFog N/A62 FN/A8955
17/09/2010:4000000N/AN/A30.0162(F), 17(C)59(F), 15(C)88%M1/4OVC002N/AFog N/A62 FN/A8950
17/09/2010:3500000N/AN/A30.0162(F), 17(C)58(F), 14(C)83%M1/4OVC002N/AFog N/A62 FN/A8945
17/09/2010:3000000N/AN/A30.0163(F), 17(C)59(F), 15(C)88%M1/4OVC002N/AFog N/A63 FN/A8940
17/09/2010:2500000N/AN/A30.0163(F), 17(C)59(F), 15(C)88%M1/4OVC002N/AFog N/A63 FN/A8935
17/09/2010:2000000N/AN/A30.0063(F), 17(C)59(F), 15(C)88%1/4OVC002N/AFog N/A63 FN/A8930
17/09/2010:1500000N/AN/A30.0063(F), 17(C)59(F), 15(C)88%M1/4OVC002N/AFog N/A63 FN/A8925
17/09/2010:1000000N/AN/A30.0062(F), 17(C)58(F), 14(C)83%M1/4OVC002N/AFog N/A62 FN/A8920
17/09/2010:0500000N/AN/A30.0062(F), 17(C)58(F), 14(C)83%1/4OVC002N/AFog N/A62 FN/A8915
17/09/2010:0000000N/AN/A30.0062(F), 17(C)58(F), 14(C)83%1/4OVC002N/AFog N/A62 FN/A8910
17/09/2009:5500000N/AN/A29.9961(F), 16(C)57(F), 14(C)88%1/2OVC002N/AFog N/A61 FN/A8905
17/09/2009:5000000N/AN/A29.9961(F), 16(C)57(F), 14(C)88%1/2OVC002N/AFog N/A61 FN/A8900
17/09/2009:4500000N/AN/A29.9961(F), 16(C)57(F), 14(C)88%1/2OVC002N/AFog N/A61 FN/A8895
17/09/2009:4000000N/AN/A29.9961(F), 16(C)57(F), 14(C)88%3/4OVC002N/AMist N/A61 FN/A8890
17/09/2009:3500000N/AN/A29.9961(F), 16(C)57(F), 14(C)88%1/4OVC002N/AFog N/A61 FN/A8885
17/09/2009:3000000N/AN/A29.9961(F), 16(C)57(F), 14(C)88%1/4OVC002N/AFog N/A61 FN/A8880
17/09/2009:2500000N/AN/A29.9961(F), 16(C)57(F), 14(C)88%1/4BKN002N/AFog N/A61 FN/A8875
17/09/2009:2000000N/AN/A29.9961(F), 16(C)57(F), 14(C)88%M1/4VV000N/AFog N/A61 FN/A8870
17/09/2009:1500000N/AN/A29.9961(F), 16(C)57(F), 14(C)88%M1/4VV000N/AFog N/A61 FN/A8865
17/09/2009:1000000N/AN/A29.9861(F), 16(C)57(F), 14(C)88%M1/4VV000N/AFog N/A61 FN/A8860
17/09/2009:0500000N/AN/A29.9962(F), 17(C)58(F), 14(C)83%1/4VV002N/AFog N/A62 FN/A8855
17/09/2009:0000000N/AN/A29.9962(F), 17(C)58(F), 14(C)83%1/4VV002N/AFog N/A62 FN/A8850
17/09/2008:5500000N/AN/A29.9962(F), 17(C)58(F), 14(C)83%1/4VV002N/AFog N/A62 FN/A8845
17/09/2008:5000000N/AN/A29.9962(F), 17(C)58(F), 14(C)83%M1/4VV000N/AFog N/A62 FN/A8840
17/09/2008:4500000N/AN/A29.9962(F), 17(C)58(F), 14(C)83%M1/4VV000N/AFog N/A62 FN/A8835
17/09/2008:4000000N/AN/A29.9962(F), 17(C)58(F), 14(C)83%1/4VV002N/AFog N/A62 FN/A8830
17/09/2008:3500000N/AN/A29.9861(F), 16(C)57(F), 14(C)88%1/4VV002N/AFog N/A61 FN/A8825
17/09/2008:3000000N/AN/A29.9861(F), 16(C)57(F), 14(C)88%M1/4VV000N/AFog N/A61 FN/A8820
17/09/2008:2500000N/AN/A29.9862(F), 17(C)58(F), 14(C)83%M1/4VV000N/AFog N/A62 FN/A8815
17/09/2008:2000000N/AN/A29.9862(F), 17(C)58(F), 14(C)83%1/4BKN080N/AFog N/A62 FN/A8810
17/09/2008:1500000N/AN/A29.9862(F), 17(C)58(F), 14(C)83%1/4BKN080N/AFog N/A62 FN/A8805
17/09/2008:1000000N/AN/A29.9862(F), 17(C)58(F), 14(C)83%1/4BKN080N/AFog N/A62 FN/A8800
17/09/2008:0500000N/AN/A29.9862(F), 17(C)58(F), 14(C)83%1/2BKN080N/AFog N/A62 FN/A8795
17/09/2008:0000000N/AN/A29.9863(F), 17(C)59(F), 15(C)88%2SCT080N/AMist N/A63 FN/A8790
17/09/2007:5500000N/AN/A29.9863(F), 17(C)59(F), 15(C)88%2 1/2SCT080N/AMist N/A63 FN/A8785
17/09/2007:5000000N/AN/A29.9862(F), 17(C)58(F), 14(C)83%2 1/2SCT080N/AMist N/A62 FN/A8780
17/09/2007:4500000N/AN/A29.9962(F), 17(C)58(F), 14(C)83%2 1/2CLRN/AMist N/A62 FN/A8775
17/09/2007:4000000N/AN/A29.9862(F), 17(C)58(F), 14(C)83%3CLRN/AMist N/A62 FN/A8770
17/09/2007:3500000N/AN/A29.9962(F), 17(C)58(F), 14(C)83%4CLRN/AMist N/A62 FN/A8765
17/09/2007:3000000N/AN/A29.9862(F), 17(C)58(F), 14(C)83%4CLRN/AMist N/A62 FN/A8760
17/09/2007:2500000N/AN/A29.9862(F), 17(C)58(F), 14(C)83%2 1/2CLRN/AMist N/A62 FN/A8755
17/09/2007:2002003N/AN/A29.9862(F), 17(C)58(F), 14(C)83%3/4VV005N/AMist N/A62 FN/A8750
17/09/2007:1500000N/AN/A29.9962(F), 17(C)58(F), 14(C)83%1/4VV002N/AFog N/A62 FN/A8745
17/09/2007:1000000N/AN/A29.9862(F), 17(C)58(F), 14(C)83%1/4VV002N/AFog N/A62 FN/A8740
17/09/2007:0500000N/AN/A29.9862(F), 17(C)58(F), 14(C)83%1/4VV002N/AFog N/A62 FN/A8735
17/09/2007:0000000N/AN/A29.9862(F), 17(C)59(F), 15(C)88%1/4VV002N/AFog N/A62 FN/A8730
17/09/2006:5500000N/AN/A29.9863(F), 17(C)59(F), 15(C)88%3/4VV005N/AMist N/A63 FN/A8725
17/09/2006:5000000N/AN/A29.9862(F), 17(C)59(F), 15(C)88%1 1/4VV007N/AMist N/A62 FN/A8720
17/09/2006:4500000N/AN/A29.9862(F), 17(C)59(F), 15(C)88%3CLRN/AMist N/A62 FN/A8715
17/09/2006:4000000N/AN/A29.9863(F), 17(C)59(F), 15(C)88%4CLRN/AMist N/A63 FN/A8710
17/09/2006:3500000N/AN/A29.9863(F), 17(C)59(F), 15(C)88%4CLRN/AMist N/A63 FN/A8705
17/09/2006:3000000N/AN/A29.9863(F), 17(C)59(F), 15(C)88%4CLRN/AMist N/A63 FN/A8700
17/09/2006:2500000N/AN/A29.9862(F), 17(C)59(F), 15(C)88%3CLRN/AMist N/A62 FN/A8695
17/09/2006:2000000N/AN/A29.9863(F), 17(C)59(F), 15(C)88%4CLRN/AMist N/A63 FN/A8690
17/09/2006:1500000N/AN/A29.9863(F), 17(C)59(F), 15(C)88%4CLRN/AMist N/A63 FN/A8685
17/09/2006:1000000N/AN/A29.9863(F), 17(C)59(F), 15(C)88%4CLRN/AMist N/A63 FN/A8680
17/09/2006:0500000N/AN/A29.9864(F), 18(C)60(F), 16(C)88%5CLRN/AMist N/A64 FN/A8675
17/09/2006:0000000N/AN/A29.9864(F), 18(C)61(F), 16(C)88%5CLRN/AMist N/A64 FN/A8670
17/09/2005:5500000N/AN/A29.9863(F), 17(C)59(F), 15(C)88%4CLRN/AMist N/A63 FN/A8665
17/09/2005:5000000N/AN/A29.9863(F), 17(C)59(F), 15(C)88%2 1/2CLRN/AMist N/A63 FN/A8660
17/09/2005:4500000N/AN/A29.9863(F), 17(C)59(F), 15(C)88%2 1/2CLRN/AMist N/A63 FN/A8655
17/09/2005:4000000N/AN/A29.9863(F), 17(C)59(F), 15(C)88%4CLRN/AMist N/A63 FN/A8650
17/09/2005:3500000N/AN/A29.9863(F), 17(C)59(F), 15(C)88%1 1/4VV007N/AMist N/A63 FN/A8645
17/09/2005:3029003N/AN/A29.9863(F), 17(C)59(F), 15(C)88%1/2VV005N/AFog N/A63 FN/A8640
17/09/2005:2500000N/AN/A29.9864(F), 18(C)60(F), 16(C)88%M1/4VV000N/AFog N/A64 FN/A8635
17/09/2005:2000000N/AN/A29.9864(F), 18(C)60(F), 16(C)88%M1/4VV000N/AFog N/A64 FN/A8630
17/09/2005:1500000N/AN/A29.9862(F), 17(C)58(F), 14(C)83%M1/4VV000N/AFog N/A62 FN/A8625
17/09/2005:1000000N/AN/A29.9862(F), 17(C)58(F), 14(C)83%1/2VV005N/AFog N/A62 FN/A8620
17/09/2005:0500000N/AN/A29.9864(F), 18(C)61(F), 16(C)88%5CLRN/AMist N/A64 FN/A8615
17/09/2005:0000000N/AN/A29.9866(F), 19(C)62(F), 17(C)88%5CLRN/AMist N/A66 FN/A8610
17/09/2004:5500000N/AN/A29.9867(F), 19(C)63(F), 17(C)88%5CLRN/AMist N/A67 FN/A8605
17/09/2004:5000000N/AN/A29.9865(F), 18(C)61(F), 16(C)88%4CLRN/AMist N/A65 FN/A8600
17/09/2004:4500000N/AN/A29.9864(F), 18(C)61(F), 16(C)88%5CLRN/AMist N/A64 FN/A8595
17/09/2004:4000000N/AN/A29.9864(F), 18(C)61(F), 16(C)88%5CLRN/AMist N/A64 FN/A8590
17/09/2004:3500000N/AN/A29.9864(F), 18(C)61(F), 16(C)88%5CLRN/AMist N/A64 FN/A8585
17/09/2004:3000000N/AN/A29.9864(F), 18(C)60(F), 16(C)88%5CLRN/AMist N/A64 FN/A8580
17/09/2004:2536003N/AN/A29.9864(F), 18(C)61(F), 16(C)88%7CLRN/AN/AN/A64 FN/A8575
17/09/2004:2036003N/AN/A29.9864(F), 18(C)61(F), 16(C)88%7CLRN/AMissingN/A64 FN/A8570
17/09/2004:1500000N/AN/A29.9865(F), 18(C)61(F), 16(C)88%7CLRN/AMissingN/A65 FN/A8565
17/09/2004:1000000N/AN/A29.9964(F), 18(C)60(F), 16(C)88%MissingMissingN/AMissingN/A64 FN/A8560
17/09/2004:05MissingMissingN/AN/AMissing64(F), 18(C)60(F), 16(C)88%7CLRN/AN/AMissingN/AN/A8555
17/09/2004:0000000N/AN/A29.9964(F), 18(C)60(F), 16(C)88%7CLRN/AN/AN/A64 FN/A8550
17/09/2003:5509003N/AN/A29.9864(F), 18(C)61(F), 16(C)88%10CLRN/AN/AN/A64 FN/A8545
17/09/2003:5000000N/AN/A29.9865(F), 18(C)61(F), 16(C)88%10CLRN/AN/AN/A65 FN/A8540
17/09/2003:4500000N/AN/A29.9866(F), 19(C)62(F), 17(C)88%10CLRN/AN/AN/A66 FN/A8535
17/09/2003:4000000N/AN/A29.9866(F), 19(C)62(F), 17(C)88%7CLRN/AN/AN/A66 FN/A8530
17/09/2003:3500000N/AN/A29.9864(F), 18(C)61(F), 16(C)88%7CLRN/AN/AN/A64 FN/A8525
17/09/2003:3000000N/AN/A29.9864(F), 18(C)61(F), 16(C)88%7CLRN/AN/AN/A64 FN/A8520
17/09/2003:2528003N/AN/A29.9864(F), 18(C)61(F), 16(C)88%7CLRN/AN/AN/A64 FN/A8515
17/09/2003:2028003N/AN/A29.9866(F), 19(C)62(F), 17(C)88%5CLRN/AMist N/A66 FN/A8510
17/09/2003:1500000N/AN/A29.9865(F), 18(C)61(F), 16(C)88%5CLRN/AMist N/A65 FN/A8505
17/09/2003:1000000N/AN/A29.9866(F), 19(C)62(F), 17(C)88%5CLRN/AMist N/A66 FN/A8500
17/09/2003:0500000N/AN/A29.9865(F), 18(C)61(F), 16(C)88%5CLRN/AMist N/A65 FN/A8495
17/09/2003:0000000N/AN/A29.9864(F), 18(C)61(F), 16(C)88%5CLRN/AMist N/A64 FN/A8490
17/09/2002:5500000N/AN/A29.9866(F), 19(C)62(F), 17(C)88%5CLRN/AMist N/A66 FN/A8485
17/09/2002:5000000N/AN/A29.9865(F), 18(C)61(F), 16(C)88%7CLRN/AN/AN/A65 FN/A8480
17/09/2002:4500000N/AN/A29.9865(F), 18(C)61(F), 16(C)88%10CLRN/AN/AN/A65 FN/A8475
17/09/2002:4000000N/AN/A29.9867(F), 19(C)63(F), 17(C)88%7CLRN/AN/AN/A67 FN/A8470
17/09/2002:3500000N/AN/A29.9867(F), 19(C)63(F), 17(C)88%7CLRN/AN/AN/A67 FN/A8465
17/09/2002:3000000N/AN/A29.9868(F), 20(C)64(F), 18(C)88%10CLRN/AN/AN/A68 FN/A8460
17/09/2002:2500000N/AN/A29.9867(F), 19(C)63(F), 17(C)88%10CLRN/AN/AN/A67 FN/A8455
17/09/2002:2000000N/AN/A29.9868(F), 20(C)64(F), 18(C)88%10SCT100N/AN/AN/A68 FN/A8450
17/09/2002:1500000N/AN/A29.9870(F), 21(C)65(F), 18(C)83%10SCT100N/AN/AN/A70 FN/A8445
17/09/2002:1000000N/AN/A29.9870(F), 21(C)65(F), 18(C)83%7SCT100N/AN/AN/A70 FN/A8440
17/09/2002:0500000N/AN/A29.9870(F), 21(C)65(F), 18(C)83%7SCT100N/AN/AN/A70 FN/A8435
17/09/2002:0000000N/AN/A29.9869(F), 21(C)64(F), 18(C)83%10SCT100N/AN/AN/A69 FN/A8430
17/09/2001:5500000N/AN/A29.9768(F), 20(C)63(F), 17(C)83%10SCT100N/AN/AN/A68 FN/A8425
17/09/2001:5000000N/AN/A29.9769(F), 21(C)65(F), 18(C)83%10SCT100N/AN/AN/A69 FN/A8420
17/09/2001:4500000N/AN/A29.9770(F), 21(C)65(F), 18(C)83%10CLRN/AN/AN/A70 FN/A8415
17/09/2001:4000000N/AN/A29.9770(F), 21(C)65(F), 18(C)83%10CLRN/AN/AN/A70 FN/A8410
17/09/2001:3500000N/AN/A29.9770(F), 21(C)65(F), 18(C)83%10CLRN/AN/AN/A70 FN/A8405
17/09/2001:3000000N/AN/A29.9770(F), 21(C)65(F), 18(C)83%10CLRN/AN/AN/A70 FN/A8400
17/09/2001:2500000N/AN/A29.9770(F), 21(C)65(F), 18(C)83%10CLRN/AN/AN/A70 FN/A8395
17/09/2001:2000000N/AN/A29.9670(F), 21(C)65(F), 18(C)83%10CLRN/AN/AN/A70 FN/A8390
17/09/2001:1500000N/AN/A29.9670(F), 21(C)65(F), 18(C)83%10CLRN/AN/AN/A70 FN/A8385
17/09/2001:1000000N/AN/A29.9670(F), 21(C)65(F), 18(C)83%10CLRN/AN/AN/A70 FN/A8380
17/09/2001:0500000N/AN/A29.9670(F), 21(C)65(F), 18(C)83%10CLRN/AN/AN/A70 FN/A8375
17/09/2001:0000000N/AN/A29.9670(F), 21(C)65(F), 18(C)83%10CLRN/AN/AN/A70 FN/A8370
17/09/2000:5500000N/AN/A29.9670(F), 21(C)65(F), 18(C)83%10CLRN/AN/AN/A70 FN/A8365
17/09/2000:5000000N/AN/A29.9670(F), 21(C)65(F), 18(C)83%10CLRN/AN/AN/A70 FN/A8360
17/09/2000:4500000N/AN/A29.9670(F), 21(C)65(F), 18(C)83%10CLRN/AN/AN/A70 FN/A8355
17/09/2000:4000000N/AN/A29.9670(F), 21(C)65(F), 18(C)83%10CLRN/AN/AN/A70 FN/A8350
17/09/2000:3500000N/AN/A29.9670(F), 21(C)65(F), 18(C)83%10SCT060N/AN/AN/A70 FN/A8345
17/09/2000:3000000N/AN/A29.9570(F), 21(C)64(F), 18(C)83%10SCT060N/AN/AN/A70 FN/A8340
17/09/2000:2500000N/AN/A29.9570(F), 21(C)64(F), 18(C)83%10SCT060N/AN/AN/A70 FN/A8335
17/09/2000:2000000N/AN/A29.9570(F), 21(C)64(F), 18(C)83%10SCT060N/AN/AN/A70 FN/A8330
17/09/2000:1500000N/AN/A29.9574(F), 23(C)68(F), 20(C)83%10SCT060N/AN/A1800N/A74 F8325
17/09/2000:1000000N/AN/A29.9574(F), 23(C)68(F), 20(C)83%10SCT060N/AN/A1800N/A74 F8320
17/09/2000:0500000N/AN/A29.9572(F), 22(C)66(F), 19(C)83%10SCT060N/AN/AN/AN/A71 F8315
17/09/2000:0000000N/AN/A29.9572(F), 22(C)66(F), 19(C)83%10SCT060 SCT100N/AN/AN/AN/A71 F8310
17/09/1923:5500000N/AN/A29.9573(F), 23(C)66(F), 19(C)78%10SCT100N/AN/A1700N/A74 F8305
17/09/1923:5000000N/AN/A29.9575(F), 24(C)66(F), 19(C)74%10SCT100N/AN/A1800N/A76 F8300
17/09/1923:4500000N/AN/A29.9575(F), 24(C)64(F), 18(C)69%10SCT110N/AN/A1800N/A77 F8295
17/09/1923:4000000N/AN/A29.9675(F), 24(C)63(F), 17(C)65%10SCT100 SCT120N/AN/A1800N/A77 F8290
17/09/1923:3500000N/AN/A29.9675(F), 24(C)64(F), 18(C)69%10SCT100 SCT120N/AN/A1800N/A77 F8285
17/09/1923:3000000N/AN/A29.9675(F), 24(C)63(F), 17(C)65%10SCT120N/AN/A1800N/A77 F8280
17/09/1923:2500000N/AN/A29.9677(F), 25(C)63(F), 17(C)61%10SCT120N/AN/A2000N/A79 F8275
17/09/1923:2020003N/AN/A29.9577(F), 25(C)63(F), 17(C)61%10SCT120N/AN/A2000N/A79 F8270
17/09/1923:1518003N/AN/A29.9577(F), 25(C)65(F), 18(C)65%10SCT120N/AN/A2000N/A79 F8265
17/09/1923:1000000N/AN/A29.9577(F), 25(C)66(F), 19(C)69%10SCT120N/AN/A2000N/A79 F8260
17/09/1923:0500000N/AN/A29.9577(F), 25(C)65(F), 18(C)65%10BKN120N/AN/A2000N/A79 F8255
17/09/1923:0020003N/AN/A29.9577(F), 25(C)66(F), 19(C)69%10BKN120N/AN/A2000N/A79 F8250
17/09/1922:5500000N/AN/A29.9577(F), 25(C)66(F), 19(C)69%10BKN120N/AN/A2000N/A79 F8245
17/09/1922:5000000N/AN/A29.9577(F), 25(C)66(F), 19(C)69%10BKN120N/AN/A2000N/A79 F8240
17/09/1922:4500000N/AN/A29.9577(F), 25(C)65(F), 18(C)65%10OVC120N/AN/A2000N/A79 F8235
17/09/1922:4000000N/AN/A29.9577(F), 25(C)66(F), 19(C)69%10OVC120N/AN/A2000N/A79 F8230
17/09/1922:3500000N/AN/A29.9577(F), 25(C)66(F), 19(C)69%10OVC120N/AN/A2000N/A79 F8225
17/09/1922:3000000N/AN/A29.9577(F), 25(C)66(F), 19(C)69%10OVC120N/AN/A2000N/A79 F8220
17/09/1922:2500000N/AN/A29.9577(F), 25(C)67(F), 19(C)69%10BKN120N/AN/A2000N/A79 F8215
17/09/1922:2000000N/AN/A29.9577(F), 25(C)65(F), 18(C)65%10BKN120N/AN/A2000N/A79 F8210
17/09/1922:1500000N/AN/A29.9577(F), 25(C)66(F), 19(C)69%10BKN110N/AN/A2000N/A79 F8205
17/09/1922:1000000N/AN/A29.9577(F), 25(C)66(F), 19(C)69%10BKN110N/AN/A2000N/A79 F8200
17/09/1922:0522004N/AN/A29.9577(F), 25(C)66(F), 19(C)69%10SCT029 BKN110N/AN/A2000N/A79 F8195
17/09/1922:0000000N/AN/A29.9577(F), 25(C)66(F), 19(C)69%10SCT029 BKN110N/AN/A2000N/A79 F8190
17/09/1921:5500000N/AN/A29.9577(F), 25(C)66(F), 19(C)69%10SCT110N/AN/A2000N/A79 F8185
17/09/1921:5025003N/AN/A29.9577(F), 25(C)66(F), 19(C)69%10SCT110N/AN/A2000N/A79 F8180
17/09/1921:4500000N/AN/A29.9577(F), 25(C)67(F), 19(C)69%10SCT110N/AN/A2000N/A79 F8175
17/09/1921:4024004N/AN/A29.9577(F), 25(C)67(F), 19(C)69%10SCT120N/AN/A2000N/A79 F8170
17/09/1921:3524003N/AN/A29.9577(F), 25(C)67(F), 19(C)69%10SCT120N/AN/A2000N/A79 F8165
17/09/1921:3023004N/AN/A29.9577(F), 25(C)67(F), 19(C)69%10SCT120N/AN/A2000N/A79 F8160
17/09/1921:2523005N/AN/A29.9577(F), 25(C)67(F), 19(C)69%10SCT120N/AN/A2000N/A79 F8155
17/09/1921:2023006N/AN/A29.9577(F), 25(C)67(F), 19(C)69%10SCT120N/AN/A2000N/A79 F8150
17/09/1921:1522005N/AN/A29.9577(F), 25(C)67(F), 19(C)69%10SCT120N/AN/A2000N/A79 F8145
17/09/1921:1023005N/AN/A29.9577(F), 25(C)67(F), 19(C)69%10CLRN/AN/A2000N/A79 F8140
17/09/1921:0523005N/AN/A29.9577(F), 25(C)67(F), 19(C)69%10CLRN/AN/A2000N/A79 F8135
17/09/1921:0023005N/AN/A29.9577(F), 25(C)67(F), 19(C)69%10CLRN/AN/A2000N/A79 F8130
17/09/1920:5523004N/AN/A29.9577(F), 25(C)67(F), 19(C)69%10CLRN/AN/A2000N/A79 F8125
17/09/1920:5023004N/AN/A29.9477(F), 25(C)67(F), 19(C)69%10CLRN/AN/A2000N/A79 F8120
17/09/1920:4500000N/AN/A29.9477(F), 25(C)67(F), 19(C)69%10CLRN/AN/A2000N/A79 F8115
17/09/1920:4000000N/AN/A29.9477(F), 25(C)66(F), 19(C)69%10CLRN/AN/A2000N/A79 F8110
17/09/1920:3500000N/AN/A29.9477(F), 25(C)67(F), 19(C)69%10CLRN/AN/A2000N/A79 F8105
17/09/1920:3000000N/AN/A29.9477(F), 25(C)67(F), 19(C)69%10CLRN/AN/A2000N/A79 F8100
17/09/1920:2500000N/AN/A29.9477(F), 25(C)67(F), 19(C)69%10CLRN/AN/A2000N/A79 F8095
17/09/1920:2000000N/AN/A29.9477(F), 25(C)67(F), 19(C)69%10CLRN/AN/A2000N/A79 F8090
17/09/1920:1500000N/AN/A29.9477(F), 25(C)67(F), 19(C)69%10SCT065N/AN/A2000N/A79 F8085
17/09/1920:1000000N/AN/A29.9577(F), 25(C)68(F), 20(C)74%10SCT065N/AN/A2000N/A79 F8080
17/09/1920:0517003N/AN/A29.9577(F), 25(C)68(F), 20(C)74%10SCT065N/AN/A2000N/A79 F8075
17/09/1920:0000000N/AN/A29.9577(F), 25(C)68(F), 20(C)74%10SCT065 SCT110N/AN/A2000N/A79 F8070
17/09/1919:5500000N/AN/A29.9677(F), 25(C)68(F), 20(C)74%10SCT065 BKN110N/AN/A2000N/A79 F8065
17/09/1919:5018003N/AN/A29.9677(F), 25(C)69(F), 21(C)79%10SCT065 BKN110N/AN/A2000N/A79 F8060
17/09/1919:4500000N/AN/A29.9677(F), 25(C)69(F), 21(C)79%10SCT065 BKN110N/AN/A1900N/A79 F8055
17/09/1919:4021003N/AN/A29.9675(F), 24(C)67(F), 19(C)74%10SCT065 BKN110N/AN/A1800N/A76 F8050
17/09/1919:3521003N/AN/A29.9677(F), 25(C)68(F), 20(C)74%10SCT110N/AN/A1900N/A79 F8045
17/09/1919:3019003N/AN/A29.9775(F), 24(C)67(F), 19(C)74%10BKN110N/AN/A1800N/A76 F8040
17/09/1919:2500000N/AN/A29.9775(F), 24(C)67(F), 19(C)74%10SCT085 SCT110N/AN/A1800N/A76 F8035
17/09/1919:2022004N/AN/A29.9875(F), 24(C)67(F), 19(C)74%10SCT110N/AN/A1800N/A76 F8030
17/09/1919:1520003N/AN/A29.9875(F), 24(C)67(F), 19(C)74%10SCT014 SCT060 SCT075N/AN/A1800N/A76 F8025
17/09/1919:1020004N/AN/A29.9875(F), 24(C)68(F), 20(C)78%10SCT014 SCT060 SCT075N/AN/A1800N/A76 F8020
17/09/1919:0500000N/AN/A29.9875(F), 24(C)68(F), 20(C)78%10SCT014 SCT060 SCT075N/AN/A1800N/A76 F8015
17/09/1919:0021003N/AN/A29.9875(F), 24(C)68(F), 20(C)78%10SCT014 SCT060 SCT075N/AN/A1800N/A76 F8010
17/09/1918:5522004N/AN/A29.9875(F), 24(C)68(F), 20(C)78%10SCT014 SCT090 SCT110N/AN/A1800N/A76 F8005
17/09/1918:5021004N/AN/A29.9875(F), 24(C)68(F), 20(C)78%10SCT014 SCT100N/AN/A1800N/A76 F8000
17/09/1918:4517003N/AN/A29.9875(F), 24(C)68(F), 20(C)78%10SCT014 SCT110N/AN/A1800N/A76 F7995
17/09/1918:4019004N/AN/A29.9875(F), 24(C)68(F), 20(C)78%10SCT014 SCT110N/AN/A1800N/A76 F7990
17/09/1918:3523003N/AN/A29.9975(F), 24(C)68(F), 20(C)78%10SCT014 BKN110N/AN/A1800N/A76 F7985
17/09/1918:3023006N/AN/A29.9975(F), 24(C)68(F), 20(C)78%10SCT014 BKN100N/AN/A1800N/A76 F7980
17/09/1918:2522004N/AN/A30.0075(F), 24(C)69(F), 21(C)83%10SCT014 SCT043 BKN075N/AN/A1800N/A75 F7975
17/09/1918:2023006N/AN/A29.9975(F), 24(C)69(F), 21(C)83%10SCT014 SCT048 BKN095N/AN/A1800N/A75 F7970
17/09/1918:1521004N/AN/A29.9975(F), 24(C)69(F), 21(C)83%10SCT048 SCT075 BKN095N/AN/A1800N/A75 F7965
17/09/1918:1011004N/AN/A29.9875(F), 24(C)69(F), 21(C)83%10SCT039 SCT055 OVC095N/AN/A1800N/A75 F7960
17/09/1918:0517004N/AN/A29.9975(F), 24(C)69(F), 21(C)83%10SCT014 BKN070 OVC095N/ALight Drizzle 1800N/A75 F7955
17/09/1918:0015003N/AN/A29.9975(F), 24(C)69(F), 21(C)83%7SCT009 BKN050 OVC075N/ALight Rain 1800N/A75 F7950
17/09/1917:5515003N/AN/A29.9975(F), 24(C)70(F), 21(C)83%7SCT009 BKN048 OVC065N/ALight Rain 1800N/A75 F7945
17/09/1917:5018006N/AN/A30.0075(F), 24(C)70(F), 21(C)83%7SCT009 BKN038 OVC080N/ALight Rain 1800N/A75 F7940
17/09/1917:4522006N/AN/A30.0075(F), 24(C)70(F), 21(C)83%7SCT009 BKN042 OVC060N/ADrizzle 1800N/A75 F7935
17/09/1917:4023006N/AN/A30.0075(F), 24(C)70(F), 21(C)83%7SCT011 BKN037 OVC049N/ALight Rain 1800N/A75 F7930
17/09/1917:3522006N/A110V02030.0175(F), 24(C)70(F), 21(C)83%7SCT015 BKN034 OVC046N/ALight Rain 1800N/A75 F7925
17/09/1917:3022008N/A070V35030.0175(F), 24(C)70(F), 21(C)83%7SCT017 BKN047 OVC120N/ALight Rain 1800N/A75 F7920
17/09/1917:2522006N/AN/A30.0175(F), 24(C)70(F), 21(C)83%7SCT017 BKN032 OVC120N/ALight Rain 1800N/A75 F7915
17/09/1917:2022009N/AN/A30.0175(F), 24(C)70(F), 21(C)83%7SCT007 BKN038 OVC120N/ALight Rain 1800N/A75 F7910
17/09/1917:1521007N/AN/A30.0175(F), 24(C)70(F), 21(C)83%7SCT007 SCT025 BKN035N/ALight Drizzle 1800N/A75 F7905
17/09/1917:1031006N/AN/A30.0175(F), 24(C)70(F), 21(C)83%7SCT007 SCT021 BKN033N/ALight Drizzle 1800N/A75 F7900
17/09/1917:0523006N/AN/A30.0175(F), 24(C)70(F), 21(C)83%7SCT007 BKN023 OVC120N/ALight Rain 1800N/A75 F7895
17/09/1917:0021005N/AN/A30.0174(F), 23(C)69(F), 21(C)89%7SCT007 BKN025 OVC095N/ALight Rain 1700N/A73 F7890
17/09/1916:5525006N/AN/A30.0175(F), 24(C)70(F), 21(C)83%7SCT007 BKN023 OVC047N/ALight Rain 1800N/A75 F7885
17/09/1916:5021006N/AN/A30.0275(F), 24(C)70(F), 21(C)83%7SCT007 BKN024 OVC046N/ALight Rain 1800N/A75 F7880
17/09/1916:4522005N/AN/A30.0275(F), 24(C)70(F), 21(C)83%5SCT007 BKN032 OVC046N/ALight Rain 1800N/A75 F7875
17/09/1916:4023005N/AN/A30.0274(F), 23(C)70(F), 21(C)89%5SCT009 BKN031 OVC047N/ALight Rain 1700N/A73 F7870
17/09/1916:3521005N/AN/A30.0275(F), 24(C)70(F), 21(C)83%5SCT023 BKN039 OVC050N/ARain 1800N/A75 F7865
17/09/1916:3020006N/AN/A30.0275(F), 24(C)70(F), 21(C)83%7SCT019 BKN033 OVC047N/ALight Rain 1800N/A75 F7860
17/09/1916:2519003N/AN/A30.0275(F), 24(C)70(F), 21(C)83%7SCT024 BKN038 OVC100N/ALight Rain 1800N/A75 F7855
17/09/1916:2018005N/AN/A30.0374(F), 23(C)69(F), 21(C)89%7SCT023 BKN055 OVC100N/ALight Rain 1700N/A73 F7850
17/09/1916:1521004N/AN/A30.0373(F), 23(C)68(F), 20(C)83%4SCT029 BKN048 OVC080N/ALight Rain N/AN/A73 F7845
17/09/1916:1000000N/AN/A30.0374(F), 23(C)70(F), 21(C)89%3SCT030 BKN048 OVC080N/ALight Rain 1700N/A73 F7840
17/09/1916:0500000N/AN/A30.0374(F), 23(C)70(F), 21(C)89%4SCT028 BKN060 OVC080N/ALight Rain 1700N/A73 F7835
17/09/1916:0000000N/AN/A30.0374(F), 23(C)70(F), 21(C)89%5SCT028 BKN060 OVC080N/ALight Rain 1700N/A73 F7830
17/09/1915:5500000N/AN/A30.0373(F), 23(C)69(F), 21(C)89%5SCT037 BKN060 OVC075N/ALight Rain N/AN/A71 F7825
17/09/1915:5000000N/AN/A30.0373(F), 23(C)68(F), 20(C)83%5SCT035 BKN060 OVC075N/ARain N/AN/A73 F7820
17/09/1915:4519003N/AN/A30.0374(F), 23(C)69(F), 21(C)89%5SCT029 SCT039 OVC060N/ARain 1700N/A73 F7815
17/09/1915:4026004N/AN/A30.0375(F), 24(C)70(F), 21(C)83%5SCT019 BKN060 OVC065N/ARain 1700N/A75 F7810
17/09/1915:3523004N/AN/A30.0375(F), 24(C)70(F), 21(C)83%5SCT014 BKN033 OVC060N/ALight Rain 1700N/A75 F7805
17/09/1915:3024006N/AN/A30.0375(F), 24(C)69(F), 21(C)83%7SCT016 BKN030 OVC050N/ARain 1700N/A75 F7800
17/09/1915:2523007N/AN/A30.0375(F), 24(C)69(F), 21(C)83%10SCT014 BKN032 OVC037N/AN/A1700N/A75 F7795
17/09/1915:2023007N/AN/A30.0375(F), 24(C)69(F), 21(C)83%10SCT014 SCT023 OVC032N/AN/A1700N/A75 F7790
17/09/1915:1523010N/AN/A30.0375(F), 24(C)68(F), 20(C)78%10SCT014 BKN033 OVC050N/AN/A1700N/A76 F7785
17/09/1915:1023012N/AN/A30.0375(F), 24(C)68(F), 20(C)78%10SCT014 BKN033 OVC065N/AN/A1700N/A76 F7780
17/09/1915:0523009N/AN/A30.0275(F), 24(C)68(F), 20(C)78%10SCT031 BKN037 BKN050N/AN/A1800N/A76 F7775
17/09/1915:0022007N/AN/A30.0275(F), 24(C)69(F), 21(C)83%10SCT030 SCT035 BKN050N/AN/A1800N/A75 F7770
17/09/1914:5522006N/AN/A30.0275(F), 24(C)68(F), 20(C)78%10SCT032 SCT050 BKN055N/AN/A1800N/A76 F7765
17/09/1914:5022008N/AN/A30.0275(F), 24(C)68(F), 20(C)78%10SCT050 BKN055 BKN075N/AN/A1800N/A76 F7760
17/09/1914:4522006N/AN/A30.0175(F), 24(C)68(F), 20(C)78%10BKN055 BKN075N/AN/A1800N/A76 F7755
17/09/1914:4022005N/AN/A30.0175(F), 24(C)68(F), 20(C)78%10SCT055 BKN075N/AN/A1800N/A76 F7750
17/09/1914:3521004N/AN/A30.0175(F), 24(C)68(F), 20(C)78%10BKN055 BKN075N/AN/A1800N/A76 F7745
17/09/1914:3022005N/AN/A30.0175(F), 24(C)68(F), 20(C)78%10SCT055 BKN075 BKN120N/AN/A1800N/A76 F7740
17/09/1914:2521006N/AN/A30.0175(F), 24(C)68(F), 20(C)78%10SCT055 BKN075 BKN120N/AN/A1800N/A76 F7735
17/09/1914:2020006N/AN/A30.0175(F), 24(C)68(F), 20(C)78%10SCT075 SCT085 BKN120N/AN/A1800N/A76 F7730
17/09/1914:1520004N/AN/A30.0175(F), 24(C)68(F), 20(C)78%10SCT075 BKN120N/AN/A1800N/A76 F7725
17/09/1914:1018005N/AN/A30.0175(F), 24(C)68(F), 20(C)78%10SCT075 BKN120N/AN/A1800N/A76 F7720
17/09/1914:0519005N/AN/A30.0175(F), 24(C)68(F), 20(C)78%10SCT075 BKN120N/AN/A1800N/A76 F7715
17/09/1914:0019005N/AN/A30.0175(F), 24(C)69(F), 21(C)83%10SCT065 BKN120N/AN/A1800N/A75 F7710
17/09/1913:5500000N/AN/A30.0174(F), 23(C)69(F), 21(C)89%10SCT018 SCT065 OVC120N/AN/A1700N/A73 F7705
17/09/1913:5000000N/AN/A30.0172(F), 22(C)68(F), 20(C)88%10SCT018 SCT065 OVC120N/AN/AN/AN/A70 F7700
17/09/1913:4500000N/AN/A30.0172(F), 22(C)67(F), 19(C)83%10SCT018 SCT065 OVC120N/AN/AN/AN/A71 F7695
17/09/1913:4000000N/AN/A30.0171(F), 22(C)66(F), 19(C)83%10SCT018 BKN065 OVC110N/AN/AN/AN/A71 F7690
17/09/1913:3500000N/AN/A30.0170(F), 21(C)65(F), 18(C)83%7SCT018 BKN065 OVC110N/AN/AN/A70 FN/A7685
17/09/1913:3000000N/AN/A30.0170(F), 21(C)65(F), 18(C)83%7SCT018 SCT065 BKN110N/AN/AN/A70 FN/A7680
17/09/1913:2500000N/AN/A30.0170(F), 21(C)65(F), 18(C)83%5SCT065 BKN110N/AHaze N/A70 FN/A7675
17/09/1913:2000000N/AN/A30.0070(F), 21(C)65(F), 18(C)83%5SCT065 OVC110N/AHaze N/A70 FN/A7670
17/09/1913:1500000N/AN/A30.0070(F), 21(C)65(F), 18(C)83%5SCT065 OVC110N/AHaze N/A70 FN/A7665
17/09/1913:1000000N/AN/A30.0070(F), 21(C)65(F), 18(C)83%5OVC110N/AHaze N/A70 FN/A7660
17/09/1913:0500000N/AN/A30.0070(F), 21(C)65(F), 18(C)83%5OVC110N/AHaze N/A70 FN/A7655
17/09/1913:0000000N/AN/A30.0070(F), 21(C)65(F), 18(C)83%5BKN100 BKN120N/AHaze N/A70 FN/A7650
17/09/1912:5500000N/AN/A30.0070(F), 21(C)66(F), 19(C)88%4BKN100 BKN120N/AMist N/A70 FN/A7645
17/09/1912:5000000N/AN/A30.0070(F), 21(C)65(F), 18(C)83%3BKN100 BKN120N/AHaze N/A70 FN/A7640
17/09/1912:4500000N/AN/A30.0070(F), 21(C)65(F), 18(C)83%4SCT100 BKN120N/AHaze N/A70 FN/A7635
17/09/1912:4000000N/AN/A29.9970(F), 21(C)65(F), 18(C)83%4SCT100 SCT120N/AHaze N/A70 FN/A7630
17/09/1912:3500000N/AN/A29.9970(F), 21(C)65(F), 18(C)83%4SCT120N/AHaze N/A70 FN/A7625
17/09/1912:3000000N/AN/A29.9970(F), 21(C)65(F), 18(C)83%5SCT120N/AHaze N/A70 FN/A7620
17/09/1912:2500000N/AN/A29.9970(F), 21(C)65(F), 18(C)83%5CLRN/AHaze N/A70 FN/A7615
17/09/1912:2000000N/AN/A29.9970(F), 21(C)65(F), 18(C)83%5CLRN/AHaze N/A70 FN/A7610
17/09/1912:1500000N/AN/A29.9970(F), 21(C)66(F), 19(C)88%5CLRN/AMist N/A70 FN/A7605
17/09/1912:1000000N/AN/A29.9870(F), 21(C)66(F), 19(C)88%4CLRN/AMist N/A70 FN/A7600
17/09/1912:0500000N/AN/A29.9970(F), 21(C)66(F), 19(C)88%4CLRN/AMist N/A70 FN/A7595